User: anonymous   Login
Location: Unspecified
(0.0000°N, 0.0000°E)
Time: 11:03:13
(UTC+00:00)
Language:

Explorer 7 - Orbit

View from above orbital plane
View from above orbital plane
View from above satellite
View from above satellite

Ground track
Ground track

The orbit data is extracted from the following two-line orbital elements,

1 00022U 59009A   15086.97524293  .00003563  00000-0  30733-3 0  9994
2 00022 050.2849 041.9146 0148574 179.2248 180.8954 14.91615119939971
Epoch (UTC): 27 March 2015 23:24:20
Eccentricity: 0.0148574
inclination: 50.2849°
perigee height: 489 km
apogee height: 696 km
right ascension of ascending node: 41.9146°
argument of perigee: 179.2248°
revolutions per day: 14.91615119
mean anomaly at epoch: 180.8954°
orbit number at epoch: 93997

The dashed part of the orbit path shows where the satellite is in the earth's shadow,  

DLR